Hourly Data Report for October 19, 2017

All times are specified in Local Standard Time (LST). Add 1 hour to adjust for Daylight Saving Time where and when it is observed.

KITCHENER/WATERLOO
ONTARIO

43°27'39.000" N
80°22'43.000" W
321.60 m
6144239
71368
YKF

Download Data

Hourly Data (October 2017)
Hourly Data Report for October 19, 2017
Temp Definition
°C
Dew Point Temp Definition
°C
Rel Hum Definition
%
Wind Dir Definition
10's deg

Wind Spd Definition
km/h
Visibility Definition
km
Stn Press Definition
kPa
Hmdx Definition


Wind Chill Definition


Weather Definition


TIME
00:00 Legend Double Dagger 10.8 9.2 90 22 15 16.1 98.06     LegendNANA
01:00 Legend Double Dagger 10.7 8.8 88 21 13 16.1 98.02     LegendNANA
02:00 Legend Double Dagger 11.6 8.8 83 21 17 16.1 97.98     LegendNANA
03:00 Legend Double Dagger 12.1 7.8 75 22 18 16.1 97.94     LegendNANA
04:00 Legend Double Dagger 11.6 7.4 75 21 21 16.1 97.92     LegendNANA
05:00 Legend Double Dagger 11.5 7.3 75 21 21 16.1 97.85     LegendNANA
06:00 Legend Double Dagger 11.6 7.4 75 21 18 16.1 97.80     LegendNANA
07:00 Legend Double Dagger 11.9 7.6 75 22 21 16.1 97.81     LegendNANA
08:00 Legend Double Dagger 12.3 8.0 75 22 28 16.1 97.84     LegendNANA
09:00 Legend Double Dagger 14.4 8.7 68 23 26 16.1 97.85     LegendNANA
10:00 Legend Double Dagger 16.2 9.1 62 25 30 16.1 97.88     LegendNANA
11:00 Legend Double Dagger 17.4 9.6 60 24 30 16.1 97.85     LegendNANA
12:00 Legend Double Dagger 18.1 9.8 58 26 32 16.1 97.87     LegendNANA
13:00 Legend Double Dagger 18.5 7.6 49 26 35 16.1 97.84     LegendNANA
14:00 Legend Double Dagger 18.5 4.8 40 27 30 16.1 97.80     LegendNANA
15:00 Legend Double Dagger 18.0 5.5 43 26 30 16.1 97.85     LegendNANA
16:00 Legend Double Dagger 16.3 4.4 45 28 30 16.1 97.91     LegendNANA
17:00 Legend Double Dagger 15.0 2.8 44 28 26 16.1 98.01     LegendNANA
18:00 Legend Double Dagger 11.6 2.1 52 27 13 16.1 98.05     LegendNANA
19:00 Legend Double Dagger 10.0 2.2 58 27 9 16.1 98.12     LegendNANA
20:00 Legend Double Dagger 8.3 2.7 68 26 9 16.1 98.13     LegendNANA
21:00 Legend Double Dagger 8.3 2.7 68 26 8 16.1 98.15     LegendNANA
22:00 Legend Double Dagger 8.9 1.9 62 27 8 16.1 98.14     LegendNANA
23:00 Legend Double Dagger 7.7 2.1 67 30 4 16.1 98.17     LegendNANA

Notes on Data Quality.

Legend

  • E = Estimated
  • M = Missing
  • NA = Not Available
  • ‡ = Partner data that is not subject to review by the National Climate Archives
Date modified: